Time,TemperatureF,DewpointF,PressureIn,WindDirection,WindDirectionDegrees,WindSpeedMPH,WindSpeedGustMPH,Humidity,HourlyPrecipIn,Conditions,Clouds,dailyrainin,SoftwareType,DateUTC
2013-02-13 00:02:00,34.3,24.0,30.12,SSW,194,4.0,6.0,66,0.00,,,0.02,weatherlink.com 1.10,2013-02-13 05:02:00,
2013-02-13 00:17:00,34.2,24.0,30.12,WSW,239,2.0,7.0,67,0.00,,,0.02,weatherlink.com 1.10,2013-02-13 05:17:00,
2013-02-13 00:32:00,33.9,24.0,30.13,SSW,213,1.0,3.0,68,0.00,,,0.02,weatherlink.com 1.10,2013-02-13 05:32:00,
2013-02-13 00:47:00,33.8,25.0,30.12,South,177,0.0,2.0,69,0.00,,,0.02,weatherlink.com 1.10,2013-02-13 05:47:00,
2013-02-13 01:02:00,33.4,23.0,30.13,WNW,302,2.0,4.0,67,0.00,,,0.02,weatherlink.com 1.10,2013-02-13 06:02:00,
2013-02-13 01:17:00,33.3,23.0,30.13,WSW,238,1.0,3.0,66,0.00,,,0.02,weatherlink.com 1.10,2013-02-13 06:17:00,
2013-02-13 01:32:00,33.2,23.0,30.13,SSW,205,0.0,2.0,67,0.00,,,0.02,weatherlink.com 1.10,2013-02-13 06:32:00,
2013-02-13 01:47:00,33.0,23.0,30.14,WSW,237,0.0,2.0,67,0.00,,,0.02,weatherlink.com 1.10,2013-02-13 06:47:00,
2013-02-13 02:02:00,33.1,23.0,30.14,SE,144,0.0,4.0,67,0.00,,,0.02,weatherlink.com 1.10,2013-02-13 07:02:00,
2013-02-13 02:17:00,33.0,23.0,30.15,SSW,209,0.0,6.0,68,0.00,,,0.02,weatherlink.com 1.10,2013-02-13 07:17:00,
2013-02-13 02:32:00,33.1,23.0,30.14,South,191,4.0,5.0,67,0.00,,,0.02,weatherlink.com 1.10,2013-02-13 07:32:00,
2013-02-13 02:47:00,33.0,23.0,30.15,West,260,1.0,4.0,68,0.00,,,0.02,weatherlink.com 1.10,2013-02-13 07:47:00,
2013-02-13 03:02:00,32.5,24.0,30.14,NE,42,3.0,4.0,70,0.00,,,0.02,weatherlink.com 1.10,2013-02-13 08:02:00,
2013-02-13 03:17:00,32.5,23.0,30.14,South,176,2.0,5.0,67,0.00,,,0.02,weatherlink.com 1.10,2013-02-13 08:17:00,
2013-02-13 03:32:00,32.4,23.0,30.14,SE,143,2.0,6.0,67,0.00,,,0.02,weatherlink.com 1.10,2013-02-13 08:32:00,
2013-02-13 03:47:00,32.3,22.0,30.14,SSW,200,1.0,6.0,67,0.00,,,0.02,weatherlink.com 1.10,2013-02-13 08:47:00,
2013-02-13 04:02:00,32.0,22.0,30.14,SE,144,1.0,3.0,66,0.00,,,0.02,weatherlink.com 1.10,2013-02-13 09:02:00,
2013-02-13 04:17:00,31.6,22.0,30.13,SE,144,0.0,3.0,67,0.00,,,0.02,weatherlink.com 1.10,2013-02-13 09:17:00,
2013-02-13 04:32:00,31.4,22.0,30.12,SE,145,0.0,2.0,68,0.00,,,0.02,weatherlink.com 1.10,2013-02-13 09:32:00,
2013-02-13 04:47:00,30.8,22.0,30.12,SSW,195,3.0,4.0,70,0.00,,,0.02,weatherlink.com 1.10,2013-02-13 09:47:00,
2013-02-13 05:02:00,30.5,22.0,30.11,SSW,202,1.0,6.0,70,0.00,,,0.02,weatherlink.com 1.10,2013-02-13 10:02:00,
2013-02-13 05:17:00,29.6,22.0,30.11,SSW,202,0.0,3.0,72,0.00,,,0.02,weatherlink.com 1.10,2013-02-13 10:17:00,
2013-02-13 05:32:00,29.0,21.0,30.11,SSW,213,0.0,2.0,73,0.00,,,0.02,weatherlink.com 1.10,2013-02-13 10:32:00,
2013-02-13 05:47:00,28.5,22.0,30.11,SSW,195,0.0,4.0,75,0.00,,,0.02,weatherlink.com 1.10,2013-02-13 10:47:00,
2013-02-13 06:02:00,28.4,21.0,30.11,SSW,201,0.0,2.0,75,0.00,,,0.02,weatherlink.com 1.10,2013-02-13 11:02:00,
2013-02-13 06:17:00,28.1,21.0,30.10,SSW,201,0.0,2.0,76,0.00,,,0.02,weatherlink.com 1.10,2013-02-13 11:17:00,
2013-02-13 06:32:00,27.4,21.0,30.10,SSW,201,0.0,2.0,77,0.00,,,0.02,weatherlink.com 1.10,2013-02-13 11:32:00,
2013-02-13 06:47:00,27.2,21.0,30.10,SSW,201,0.0,1.0,77,0.00,,,0.02,weatherlink.com 1.10,2013-02-13 11:47:00,
2013-02-13 07:02:00,27.1,21.0,30.11,SSW,201,0.0,1.0,78,0.00,,,0.02,weatherlink.com 1.10,2013-02-13 12:02:00,
2013-02-13 07:18:00,27.2,21.0,30.11,SSW,201,0.0,1.0,78,0.00,,,0.02,weatherlink.com 1.10,2013-02-13 12:18:00,
2013-02-13 07:33:00,28.0,21.0,30.12,SE,146,0.0,2.0,76,0.00,,,0.02,weatherlink.com 1.10,2013-02-13 12:33:00,
2013-02-13 07:48:00,29.2,22.0,30.12,SE,144,1.0,3.0,74,0.00,,,0.02,weatherlink.com 1.10,2013-02-13 12:48:00,
2013-02-13 08:03:00,29.9,22.0,30.12,South,171,0.0,2.0,72,0.00,,,0.02,weatherlink.com 1.10,2013-02-13 13:03:00,
2013-02-13 08:18:00,30.2,22.0,30.12,SSE,148,0.0,2.0,71,0.00,,,0.02,weatherlink.com 1.10,2013-02-13 13:18:00,
2013-02-13 08:33:00,31.0,22.0,30.11,East,100,2.0,3.0,70,0.00,,,0.02,weatherlink.com 1.10,2013-02-13 13:33:00,
2013-02-13 08:48:00,32.3,22.0,30.11,SSW,195,0.0,4.0,67,0.00,,,0.02,weatherlink.com 1.10,2013-02-13 13:48:00,
2013-02-13 09:03:00,32.9,23.0,30.10,SSW,194,2.0,4.0,66,0.00,,,0.02,weatherlink.com 1.10,2013-02-13 14:03:00,
2013-02-13 09:18:00,33.8,23.0,30.10,SSE,166,0.0,5.0,64,0.00,,,0.02,weatherlink.com 1.10,2013-02-13 14:18:00,
2013-02-13 09:33:00,35.3,23.0,30.09,SW,228,2.0,7.0,62,0.00,,,0.02,weatherlink.com 1.10,2013-02-13 14:33:00,
2013-02-13 09:48:00,37.4,23.0,30.09,South,181,1.0,5.0,57,0.00,,,0.02,weatherlink.com 1.10,2013-02-13 14:48:00,
2013-02-13 10:03:00,37.8,24.0,30.09,SSW,194,2.0,5.0,57,0.00,,,0.00,weatherlink.com 1.10,2013-02-13 15:03:00,
2013-02-13 10:18:00,37.7,23.0,30.08,SSE,158,1.0,6.0,55,0.00,,,0.00,weatherlink.com 1.10,2013-02-13 15:18:00,
2013-02-13 10:33:00,39.2,23.0,30.08,North,360,1.0,5.0,53,0.00,,,0.00,weatherlink.com 1.10,2013-02-13 15:33:00,
2013-02-13 10:48:00,40.0,23.0,30.08,South,175,2.0,5.0,52,0.00,,,0.00,weatherlink.com 1.10,2013-02-13 15:48:00,
2013-02-13 11:03:00,39.6,23.0,30.07,SE,135,0.0,5.0,52,0.00,,,0.00,weatherlink.com 1.10,2013-02-13 16:03:00,
2013-02-13 11:18:00,39.3,23.0,30.08,South,178,0.0,4.0,53,0.00,,,0.00,weatherlink.com 1.10,2013-02-13 16:18:00,
2013-02-13 11:33:00,39.9,23.0,30.08,SSW,198,4.0,7.0,51,0.00,,,0.00,weatherlink.com 1.10,2013-02-13 16:33:00,
2013-02-13 11:48:00,40.8,23.0,30.08,SSW,194,4.0,6.0,49,0.00,,,0.00,weatherlink.com 1.10,2013-02-13 16:48:00,
2013-02-13 12:03:00,41.7,23.0,30.07,SSE,158,3.0,6.0,47,0.00,,,0.00,weatherlink.com 1.10,2013-02-13 17:03:00,
2013-02-13 12:18:00,41.5,23.0,30.06,South,184,3.0,6.0,49,0.00,,,0.00,weatherlink.com 1.10,2013-02-13 17:18:00,
2013-02-13 12:33:00,42.0,23.0,30.05,SE,138,1.0,6.0,48,0.00,,,0.00,weatherlink.com 1.10,2013-02-13 17:33:00,
2013-02-13 12:48:00,41.0,24.0,30.04,NNE,13,2.0,6.0,51,0.00,,,0.00,weatherlink.com 1.10,2013-02-13 17:48:00,
2013-02-13 13:03:00,40.7,25.0,30.03,SSW,198,0.0,2.0,53,0.00,,,0.00,weatherlink.com 1.10,2013-02-13 18:03:00,
2013-02-13 13:18:00,41.6,23.0,30.02,NNE,32,3.0,5.0,48,0.00,,,0.00,weatherlink.com 1.10,2013-02-13 18:18:00,
2013-02-13 13:48:00,42.7,23.0,29.99,ESE,111,0.0,6.0,46,0.00,,,0.00,weatherlink.com 1.10,2013-02-13 18:48:00,
2013-02-13 14:03:00,43.6,26.0,29.98,NNW,331,2.0,4.0,50,0.00,,,0.00,weatherlink.com 1.10,2013-02-13 19:03:00,
2013-02-13 14:18:00,43.5,23.0,29.98,NNW,340,0.0,5.0,45,0.00,,,0.00,weatherlink.com 1.10,2013-02-13 19:18:00,
2013-02-13 14:33:00,43.9,23.0,29.98,NNW,334,1.0,4.0,44,0.00,,,0.00,weatherlink.com 1.10,2013-02-13 19:33:00,
2013-02-13 14:48:00,44.1,24.0,29.98,ESE,109,2.0,3.0,45,0.00,,,0.00,weatherlink.com 1.10,2013-02-13 19:48:00,
2013-02-13 15:03:00,45.0,24.0,29.97,NNW,340,0.0,2.0,44,0.00,,,0.00,weatherlink.com 1.10,2013-02-13 20:03:00,
2013-02-13 15:18:00,43.5,26.0,29.97,SSW,205,0.0,3.0,50,0.00,,,0.00,weatherlink.com 1.10,2013-02-13 20:18:00,
2013-02-13 15:33:00,42.3,23.0,29.96,SW,227,1.0,3.0,47,0.00,,,0.00,weatherlink.com 1.10,2013-02-13 20:33:00,
2013-02-13 15:49:00,41.5,24.0,29.96,SW,227,0.0,2.0,50,0.00,,,0.00,weatherlink.com 1.10,2013-02-13 20:49:00,
2013-02-13 16:04:00,41.0,23.0,29.95,SW,227,0.0,2.0,50,0.00,,,0.00,weatherlink.com 1.10,2013-02-13 21:04:00,
2013-02-13 16:19:00,40.4,23.0,29.95,SW,227,2.0,3.0,51,0.00,,,0.00,weatherlink.com 1.10,2013-02-13 21:19:00,
2013-02-13 16:34:00,39.7,25.0,29.95,SW,227,0.0,1.0,55,0.00,,,0.00,weatherlink.com 1.10,2013-02-13 21:34:00,
2013-02-13 16:49:00,38.9,24.0,29.94,SW,227,0.0,0.0,55,0.00,,,0.00,weatherlink.com 1.10,2013-02-13 21:49:00,
2013-02-13 17:04:00,38.5,24.0,29.94,SW,223,0.0,3.0,57,0.00,,,0.00,weatherlink.com 1.10,2013-02-13 22:04:00,
2013-02-13 17:19:00,37.8,26.0,29.94,SW,215,1.0,3.0,63,0.00,,,0.00,weatherlink.com 1.10,2013-02-13 22:19:00,
2013-02-13 17:34:00,37.3,26.0,29.93,SSW,208,0.0,1.0,63,0.00,,,0.00,weatherlink.com 1.10,2013-02-13 22:34:00,
2013-02-13 17:49:00,36.6,26.0,29.93,SSW,208,0.0,1.0,65,0.00,,,0.00,weatherlink.com 1.10,2013-02-13 22:49:00,
2013-02-13 18:04:00,36.2,26.0,29.93,SSW,208,0.0,1.0,67,0.00,,,0.00,weatherlink.com 1.10,2013-02-13 23:04:00,
2013-02-13 18:19:00,35.7,27.0,29.93,SSW,208,0.0,1.0,70,0.00,,,0.00,weatherlink.com 1.10,2013-02-13 23:19:00,
2013-02-13 18:34:00,35.3,27.0,29.93,SSW,208,0.0,0.0,71,0.00,,,0.00,weatherlink.com 1.10,2013-02-13 23:34:00,
2013-02-13 18:49:00,35.1,27.0,29.93,SSW,208,0.0,1.0,71,0.00,,,0.00,weatherlink.com 1.10,2013-02-13 23:49:00,
2013-02-13 19:04:00,34.8,28.0,29.91,SSW,208,0.0,1.0,76,0.00,,,0.00,weatherlink.com 1.10,2013-02-14 00:04:00,
2013-02-13 19:19:00,34.6,27.0,29.92,SSW,208,0.0,2.0,74,0.00,,,0.00,weatherlink.com 1.10,2013-02-14 00:19:00,
2013-02-13 19:34:00,34.5,28.0,29.91,SSW,208,1.0,2.0,77,0.00,,,0.00,weatherlink.com 1.10,2013-02-14 00:34:00,
2013-02-13 19:49:00,34.6,27.0,29.92,SSW,208,1.0,2.0,73,0.00,,,0.00,weatherlink.com 1.10,2013-02-14 00:49:00,
2013-02-13 20:04:00,35.2,26.0,29.93,East,90,2.0,5.0,70,0.00,,,0.00,weatherlink.com 1.10,2013-02-14 01:04:00,
2013-02-13 20:19:00,35.2,26.0,29.92,East,86,0.0,3.0,70,0.00,,,0.00,weatherlink.com 1.10,2013-02-14 01:19:00,
2013-02-13 20:34:00,35.0,27.0,29.92,East,86,0.0,0.0,72,0.00,,,0.00,weatherlink.com 1.10,2013-02-14 01:34:00,
2013-02-13 20:49:00,34.7,27.0,29.93,East,86,0.0,0.0,73,0.00,,,0.00,weatherlink.com 1.10,2013-02-14 01:49:00,
2013-02-13 21:04:00,34.7,27.0,29.94,East,86,0.0,0.0,73,0.00,,,0.00,weatherlink.com 1.10,2013-02-14 02:04:00,
2013-02-13 21:19:00,34.6,28.0,29.95,South,186,1.0,4.0,78,0.00,,,0.00,weatherlink.com 1.10,2013-02-14 02:19:00,
2013-02-13 21:34:00,34.1,30.0,29.95,South,186,0.0,1.0,83,0.00,,,0.00,weatherlink.com 1.10,2013-02-14 02:34:00,
2013-02-13 21:49:00,33.6,30.0,29.95,South,186,0.0,0.0,86,0.00,,,0.00,weatherlink.com 1.10,2013-02-14 02:49:00,
2013-02-13 22:04:00,33.1,30.0,29.94,SSW,196,1.0,3.0,89,0.00,,,0.00,weatherlink.com 1.10,2013-02-14 03:04:00,
2013-02-13 22:19:00,32.4,30.0,29.94,SSW,196,1.0,3.0,91,0.00,,,0.00,weatherlink.com 1.10,2013-02-14 03:19:00,
2013-02-13 22:34:00,31.9,30.0,29.93,SSW,196,0.0,1.0,92,0.00,,,0.00,weatherlink.com 1.10,2013-02-14 03:34:00,
2013-02-13 22:49:00,31.6,30.0,29.93,SSW,196,0.0,0.0,93,0.00,,,0.00,weatherlink.com 1.10,2013-02-14 03:49:00,
2013-02-13 23:04:00,31.3,30.0,29.93,SSW,196,0.0,2.0,93,0.00,,,0.00,weatherlink.com 1.10,2013-02-14 04:04:00,
2013-02-13 23:19:00,31.1,30.0,29.93,SSW,196,0.0,2.0,94,0.00,,,0.00,weatherlink.com 1.10,2013-02-14 04:19:00,